Temp_Advection
nan nan nan nan nan nan nan nan nan nan nan nan nan nan nan nan nan nan nan nan nan nan nan nan nan nan nan nan nan nan nan nan nan nan nan nan nan nan nan nan nan nan nan nan nan
nan 1 1 1 0 -0 -0 -1 -1 -1 -0 0 1 2 1 -0 0 -1 -1 -0 -0 -0 -0 -0 -0 0 -0 -0 -0 -0 -0 -1 -0 0 0 -0 -0 -0 0 1 -0 -0 -1 0 nan
nan 1 1 0 0 -1 -0 -1 -1 -1 -1 -0 -0 0 0 0 -0 -1 -0 -0 -0 -0 -0 -0 -0 -0 -0 -1 -1 0 -1 -1 0 -0 -0 1 -0 0 0 -0 -1 -1 -0 2 nan
nan 1 0 -0 -1 -1 -0 -0 -0 0 -0 -1 -0 -0 -0 -0 -0 -0 0 0 0 -0 -0 -0 -0 -0 -0 -0 1 -0 -1 0 -0 0 -0 -0 -0 -0 -0 -0 -0 0 1 1 nan
nan 0 -0 0 -0 -1 -1 -0 -0 -0 -0 -0 -0 -0 -0 -1 -0 0 0 -0 -0 -0 -0 -1 -1 -1 -1 -0 -1 -1 -0 -0 0 0 -0 -0 0 0 -1 -1 -1 0 0 0 nan
nan 0 0 0 -0 -0 -0 0 -0 -0 -0 -0 -0 0 -1 -0 0 -0 -0 -0 -0 -0 -1 -0 -0 -0 -1 -1 -0 -0 -1 -1 -1 -1 -1 -0 -0 -0 -2 -0 -1 -0 -0 -0 nan
nan -1 -0 0 -0 0 0 -0 -1 -0 -0 -0 -0 -0 -2 0 0 -0 -1 -0 -0 -0 -0 -1 0 -0 -0 -0 -1 -0 -0 -0 -0 -1 -1 -0 -0 -1 -0 -0 -1 -1 -0 0 nan
nan -1 -1 -1 -0 0 0 -1 -0 -0 -0 -0 -0 -0 -0 0 0 -0 -1 -0 -0 -0 -0 -0 -0 -0 -0 -0 -0 -0 0 -1 -2 -0 -0 0 -1 -2 -0 0 -0 -0 -0 -0 nan
nan -1 -1 -1 -1 -1 -0 -0 -0 -0 -0 -0 0 -0 -0 -1 -1 -0 -0 -0 -1 -0 -0 -0 -1 -0 -0 -0 -1 -0 -0 -1 -2 -2 -1 0 -1 -1 1 1 0 -0 0 -0 nan
nan -0 -1 -1 -1 -2 -1 0 0 -0 0 -0 -1 -0 -1 -1 -0 -0 -0 -0 -1 -1 -1 -1 -0 -0 -0 -0 -0 -1 -1 -1 -1 -1 -1 -1 -2 -1 -1 -3 -3 1 1 -0 nan
nan -0 0 -0 -0 -1 -2 -0 -0 -1 -2 -0 -0 0 -0 -0 -0 -0 -0 -1 -1 -1 -0 -0 -0 -0 -0 -0 0 0 0 -0 -1 -1 -0 -1 -1 -1 -1 0 -0 -3 0 1 nan
nan -0 0 0 0 -0 -1 -2 -0 0 0 0 -0 -0 -0 -0 -0 -1 -0 -0 -0 -0 -0 -0 0 -0 -0 0 0 1 1 -0 -1 -1 -0 -0 -1 -1 -1 -1 -0 1 -1 -1 nan
nan -0 -0 -0 -0 -0 -1 0 0 -0 0 -0 -0 -0 -0 0 -0 -0 -0 0 0 -0 0 -0 -0 -0 -0 0 0 0 0 -0 -1 -1 -1 0 -1 -2 -2 -1 -1 -0 1 -1 nan
nan -0 -0 -0 -0 -1 -0 0 -0 -0 0 -0 -0 -0 -0 -0 0 0 -0 0 0 0 -0 -0 -0 -0 -0 -0 1 -0 -0 0 0 0 -0 -0 -1 -1 -1 -1 -1 -1 -1 -0 nan
nan -0 -0 -0 -0 -0 0 -0 -0 -0 -0 -0 -0 -0 -0 -0 -0 -0 -0 -0 0 0 0 -0 -0 -0 -0 -0 0 0 -1 0 1 1 -0 -0 -0 -1 -1 -1 -1 -1 -1 -1 nan
nan -0 -0 -0 -0 0 0 -0 -0 -0 -0 -0 -0 -0 -0 -0 -0 -0 -0 -1 -0 -0 -0 -0 -0 0 -0 -0 -0 0 0 -1 0 0 0 -0 -0 -1 -1 -1 -1 -0 -0 0 nan
nan -0 -0 -0 0 0 0 -0 -0 0 0 0 -0 -0 -0 -0 -0 -0 -0 -0 -0 -1 -2 -1 -0 -0 0 -1 -0 -0 0 0 -0 -0 -0 -0 -0 -1 -1 -1 -1 -0 -0 -1 nan
nan 0 0 -0 0 0 0 -1 -0 -0 -0 -0 0 -0 -0 -0 -0 -0 -0 -0 -0 0 -1 -0 -1 0 0 0 -0 -0 0 0 0 -0 -1 0 -0 -0 -1 -1 -0 1 0 -1 nan
nan -0 -0 -0 -0 0 -0 -1 0 -0 -0 -0 -0 -0 -0 -0 -0 -0 0 0 -0 -0 0 -0 -1 -0 -0 1 0 0 -0 -0 0 0 -0 -0 0 -0 -2 -2 -1 -1 -2 -1 nan
nan -0 -1 -0 -0 -1 -1 0 -0 -0 0 0 -0 -0 -0 -1 -0 -0 0 -0 -0 -1 0 0 -1 -1 -0 -0 -0 0 -0 0 -0 -0 -1 -0 -0 -1 -2 -2 -2 -1 -2 -2 nan
nan -0 -0 -0 -1 -3 -1 0 -0 -0 0 0 0 0 0 -0 -0 0 -0 -0 -0 -0 0 0 0 -1 -0 -0 -0 -0 -0 -0 -0 -0 -0 -0 -0 -1 -1 -1 -2 -1 -2 -2 nan
nan -0 -0 -0 -1 -1 0 -0 -0 -0 -0 0 0 -0 -0 -0 0 0 -0 -0 0 1 0 -0 0 -0 -1 -0 -0 -1 -0 -0 -0 -0 -0 -0 -0 -0 -0 -1 -2 0 0 0 nan
nan -0 -0 -1 -0 -0 -0 -0 -0 -0 -0 0 0 -0 -0 -0 0 -0 -0 -0 0 1 0 0 0 -0 -0 0 -0 -0 -0 -0 -0 -0 -0 -0 -1 -0 -0 -0 -2 -2 0 0 nan
nan -0 0 -1 -1 -0 0 -0 -0 -0 -0 -0 -0 0 0 0 0 -0 -0 -0 -0 -0 0 -1 0 -0 -0 -0 -0 -0 -0 -0 -0 -0 -0 -0 -0 -1 -1 -1 -1 -2 -2 -1 nan
nan -0 -0 -0 -0 0 -0 0 -0 -0 -0 -0 -0 0 -0 -0 -0 -0 -0 -0 -0 -0 -0 -0 -0 -0 0 0 -0 -0 -0 -0 -0 -0 -0 -0 -0 -0 -0 -0 -0 -1 -1 -1 nan
nan -0 -0 0 0 -0 -0 -0 -0 0 0 -0 -0 -0 0 0 -0 -1 -0 -0 0 -0 -0 -0 -0 -1 -0 -0 -0 -0 -0 -0 -0 -0 -0 -0 -0 -0 -0 -0 -0 -1 -1 -1 nan
nan nan nan nan nan nan nan nan nan nan nan nan nan nan nan nan nan nan nan nan nan nan nan nan nan nan nan nan nan nan nan nan nan nan nan nan nan nan nan nan nan nan nan nan nan
Wind_Speed
19 20 20 21 22 23 23 24 23 23 23 23 22 19 17 16 11 7 19 18 18 19 21 17 14 13 14 18 20 15 7 20 30 17 15 4 5 13 12 19 12 16 20 15 20
19 20 21 22 23 25 25 24 22 23 22 22 22 18 13 11 4 18 18 21 19 20 20 16 17 14 11 15 14 16 13 28 9 17 8 8 12 8 6 12 10 14 19 24 17
20 21 23 25 27 26 25 23 22 23 23 20 21 15 9 7 12 20 22 20 19 20 18 16 12 11 17 21 26 17 30 23 12 5 14 15 4 13 5 9 13 16 23 28 25
21 23 25 26 27 27 26 24 24 24 21 19 16 13 8 6 3 22 20 19 20 19 18 13 10 12 11 14 25 24 31 32 35 24 10 5 6 11 20 14 6 14 16 21 28
23 25 26 27 27 28 27 24 26 24 16 13 11 12 9 14 13 18 20 20 21 16 17 19 14 11 14 10 15 21 25 32 33 18 25 30 25 18 28 24 33 30 22 14 24
24 26 27 28 28 28 25 26 24 17 10 10 9 14 14 10 18 17 20 23 21 20 22 18 14 19 17 20 17 18 26 23 19 24 30 21 18 12 46 28 32 25 22 21 22
25 26 27 28 27 25 28 26 19 12 10 8 13 22 34 16 20 20 23 22 18 20 23 21 21 12 11 14 24 20 19 19 18 22 19 19 21 32 33 16 19 29 33 31 25
26 27 28 27 24 24 27 22 14 14 10 10 7 9 8 22 22 21 26 27 26 23 24 16 18 22 13 17 13 15 14 16 19 12 8 20 32 26 26 37 36 27 22 27 33
26 27 24 23 23 26 26 17 14 11 22 10 7 6 6 25 33 26 30 32 27 25 22 12 20 7 8 5 5 4 10 15 16 14 18 16 17 18 39 26 29 36 36 33 26
26 24 20 23 21 27 28 8 16 18 6 7 21 5 26 28 20 26 24 23 20 21 15 16 7 3 4 6 4 12 13 13 17 10 23 21 24 18 33 24 23 34 34 36 38
25 20 21 22 16 26 28 3 3 6 29 17 2 9 12 26 18 25 27 23 19 17 4 6 4 6 3 6 11 11 12 13 20 23 17 21 23 22 18 25 25 22 24 32 34
24 20 22 22 12 24 27 16 9 3 4 14 17 7 21 25 9 28 26 19 8 9 6 5 10 6 10 14 18 18 15 18 18 19 14 16 22 21 16 18 23 27 24 15 23
22 19 22 23 9 25 27 21 6 6 3 8 9 7 20 22 7 28 27 24 4 8 7 7 13 13 17 19 19 17 11 13 18 21 14 17 20 18 23 19 23 29 32 25 20
19 18 20 22 8 26 24 17 4 8 3 9 9 9 22 20 6 23 31 17 6 5 8 5 10 20 20 20 14 11 10 16 16 14 7 8 8 11 13 18 18 23 32 33 29
17 17 18 20 13 24 21 8 6 3 4 13 6 8 26 11 17 15 29 14 7 13 3 18 17 21 19 10 12 17 20 20 21 17 15 17 6 7 15 16 19 19 27 34 32
15 16 18 19 19 23 17 4 1 5 3 5 8 11 14 11 15 15 19 13 13 6 14 14 22 6 5 13 17 14 15 20 16 9 10 22 10 9 15 16 11 16 25 31 33
11 13 17 16 24 20 13 2 4 6 4 7 6 10 13 9 11 11 12 9 3 10 20 13 7 5 1 16 10 9 11 4 4 2 6 4 9 16 10 20 18 12 20 29 41
9 9 13 12 18 18 7 4 9 1 3 5 5 12 4 8 7 10 9 7 1 1 8 7 13 6 10 6 8 16 6 6 6 4 12 10 7 1 14 20 24 33 19 24 30
8 7 15 15 19 13 2 6 3 2 4 6 9 3 5 4 3 8 4 3 4 1 7 6 7 12 9 13 2 7 10 14 6 9 6 5 4 5 22 18 13 11 14 18 26
6 2 21 19 14 7 7 5 1 2 5 2 1 3 3 6 8 6 5 4 5 5 4 3 8 7 13 6 1 8 8 8 3 4 6 7 5 9 24 24 21 15 12 23 27
5 3 13 19 8 15 4 1 2 6 4 2 2 3 4 3 4 3 4 8 3 8 3 4 3 10 7 4 12 8 8 5 5 4 3 5 4 13 22 21 20 19 16 21 25
3 4 14 17 9 4 2 3 4 4 3 3 1 4 4 3 4 3 5 4 15 15 9 3 2 5 13 6 7 13 12 12 2 4 4 4 2 19 24 24 24 4 9 11 21
4 4 9 11 4 3 4 3 2 3 3 2 3 2 2 3 6 4 5 8 19 14 4 6 2 7 8 1 2 6 21 13 13 4 5 5 7 20 25 29 32 20 19 18 12
3 3 6 11 8 5 2 3 4 9 4 5 5 3 3 6 5 7 7 9 27 12 15 11 3 4 6 12 9 13 24 18 14 4 10 4 19 23 32 27 30 32 23 25 28
6 3 4 3 4 2 2 0 3 5 5 6 3 3 2 4 6 4 6 11 9 9 12 2 4 10 15 10 5 15 21 19 14 15 8 19 16 18 25 22 24 28 26 31 30
4 3 3 1 4 2 2 2 2 3 3 4 3 8 7 6 7 15 11 7 6 7 7 3 4 12 3 3 4 7 19 17 11 15 16 19 14 22 26 31 28 27 27 29 27
6 4 1 1 1 3 2 3 4 7 6 12 10 8 7 7 16 32 25 25 16 7 4 3 5 5 4 10 6 3 16 18 14 9 19 19 20 23 24 20 18 27 31 27 25
Wind_Direction
5 1 0 356 356 357 357 354 350 344 341 337 334 331 334 340 23 39 30 356 340 334 326 319 282 272 253 225 219 218 235 250 246 236 235 191 197 211 235 222 216 193 220 221 220
2 1 358 358 355 358 358 354 349 341 338 337 338 327 323 333 70 31 5 349 345 337 339 331 309 288 238 226 222 210 226 243 264 238 252 221 212 197 177 207 228 207 212 216 212
2 360 358 357 356 355 358 350 348 341 341 343 347 334 329 25 106 6 356 354 356 357 339 327 317 291 245 234 218 223 235 236 248 317 270 242 238 227 207 228 213 215 216 214 199
1 3 359 354 353 355 357 352 347 339 341 341 1 15 28 50 63 11 8 357 352 354 350 339 321 290 267 245 233 246 248 251 262 267 291 279 277 252 240 225 209 217 218 215 195
3 3 356 354 353 352 359 354 344 344 344 348 9 34 76 68 16 3 2 356 353 0 8 356 329 312 271 288 307 254 260 266 265 271 268 266 261 267 262 244 249 254 256 248 213
1 0 355 353 351 355 1 351 348 7 20 14 54 74 82 73 17 4 359 358 3 354 349 343 327 312 290 271 266 288 300 293 291 291 274 271 268 255 252 255 252 241 238 240 234
358 360 353 351 349 360 1 354 2 14 12 49 100 88 63 44 7 359 0 1 354 340 335 325 314 302 291 289 275 273 279 287 280 288 266 282 265 242 248 261 250 241 243 242 235
358 359 353 352 353 3 5 3 19 24 45 68 90 90 86 14 7 4 359 353 351 342 337 325 329 302 266 269 282 272 271 274 279 273 286 243 255 249 254 238 242 245 240 231 228
359 1 1 2 355 356 8 9 38 50 65 80 81 80 12 351 5 353 354 346 339 339 340 329 338 301 338 346 320 284 283 303 298 312 285 249 262 274 244 252 245 239 235 241 235
359 6 11 1 355 354 4 3 63 50 116 74 43 73 15 348 352 8 0 349 344 345 349 345 338 339 5 24 315 308 314 302 295 291 312 301 285 285 302 322 276 239 225 225 227
359 11 8 360 3 2 359 32 37 43 62 71 30 130 347 349 352 357 357 358 345 340 340 327 328 313 284 295 281 284 283 273 278 284 277 274 277 279 282 282 287 301 224 221 224
0 8 8 3 359 2 11 50 62 88 73 48 25 35 358 353 338 356 353 356 328 313 317 320 294 282 299 300 308 300 286 277 286 277 292 278 270 281 277 271 255 270 282 282 224
2 5 5 1 352 359 14 14 58 131 93 23 13 6 358 350 336 340 353 336 283 297 309 285 283 298 304 314 308 294 278 269 269 288 297 277 276 272 269 263 261 240 259 268 272
5 5 5 4 0 358 8 1 58 132 89 2 350 12 347 351 349 343 345 327 313 288 315 282 288 301 309 302 304 298 281 284 287 303 292 338 294 272 256 249 243 233 231 251 257
1 3 3 7 8 6 351 14 123 126 32 325 344 349 353 10 315 340 349 338 283 314 5 301 307 308 302 293 337 291 287 285 285 275 282 268 258 268 246 269 238 231 223 231 239
359 2 3 3 4 357 355 60 76 41 315 328 342 336 344 328 335 324 352 3 317 305 297 296 300 272 252 309 309 303 291 283 270 254 263 254 210 246 232 232 232 215 216 214 224
355 5 3 3 356 350 351 7 30 74 7 342 332 330 327 337 326 346 338 340 12 344 344 331 305 308 296 338 299 318 311 320 349 196 242 253 193 234 220 224 246 240 215 207 226
356 10 8 7 348 344 353 51 64 274 323 321 312 313 311 8 332 328 342 343 4 85 296 334 327 353 330 326 299 308 328 309 303 302 290 269 223 318 243 238 229 236 230 226 223
7 11 18 9 357 347 53 51 169 246 265 303 321 357 322 340 6 359 320 262 255 175 359 317 287 328 300 327 10 321 347 299 277 266 255 251 350 58 355 360 316 340 303 217 207
6 31 21 7 356 18 64 107 231 246 309 314 328 27 313 326 345 12 328 234 279 196 166 270 290 288 325 8 88 291 334 327 333 299 311 316 76 16 354 337 324 316 281 235 222
19 79 6 5 10 51 84 179 307 294 308 274 278 294 244 296 264 287 256 286 256 311 268 255 184 290 314 3 350 346 340 340 265 261 295 311 88 12 345 327 313 296 247 238 218
53 59 6 5 47 40 46 332 330 300 324 295 253 191 207 310 291 278 258 205 313 329 311 251 244 283 296 325 83 43 350 342 285 334 326 272 323 6 343 337 338 37 104 173 218
58 47 30 30 68 5 332 326 284 315 325 315 286 221 170 300 312 237 283 278 320 335 298 341 288 310 330 113 40 6 10 347 347 306 7 345 314 333 337 358 355 7 46 70 86
40 36 39 59 84 122 38 318 323 323 310 350 279 305 338 304 222 280 290 302 322 306 317 344 269 247 270 286 313 12 8 1 8 358 324 2 318 336 347 348 354 1 17 52 60
43 65 38 352 19 28 154 90 325 345 325 316 307 245 21 293 300 232 260 315 312 324 335 75 275 313 301 286 131 49 12 353 15 0 19 325 328 342 338 344 349 352 2 40 40
64 37 24 328 315 352 349 260 299 295 230 287 232 300 302 274 215 287 300 317 266 324 333 336 286 322 280 311 44 60 14 359 350 9 9 353 344 338 337 347 356 353 5 27 29
65 41 54 339 58 72 229 232 256 306 274 245 282 306 304 281 290 287 276 268 253 301 298 312 321 324 279 333 331 16 13 347 341 19 19 7 330 330 345 340 16 353 12 17 20
Height
1533 1530 1527 1523 1520 1517 1514 1511 1507 1503 1501 1498 1496 1494 1493 1492 1492 1491 1488 1494 1492 1489 1485 1482 1481 1482 1483 1482 1484 1487 1481 1455 1439 1451 1448 1445 1447 1445 1447 1450 1448 1448 1449 1451 1453
1532 1529 1525 1522 1518 1516 1513 1510 1506 1502 1498 1495 1493 1490 1489 1488 1489 1491 1495 1493 1490 1487 1483 1480 1479 1479 1479 1476 1476 1473 1464 1433 1442 1447 1445 1445 1445 1443 1443 1444 1444 1442 1445 1447 1448
1531 1527 1524 1521 1517 1514 1511 1506 1503 1499 1496 1493 1490 1488 1487 1488 1489 1494 1493 1491 1488 1485 1483 1480 1478 1476 1473 1472 1467 1460 1439 1436 1439 1441 1445 1443 1442 1442 1439 1438 1436 1438 1438 1441 1442
1530 1527 1523 1519 1515 1512 1509 1504 1501 1497 1494 1491 1489 1486 1485 1486 1497 1495 1493 1490 1487 1484 1482 1479 1477 1475 1469 1463 1460 1456 1440 1444 1440 1444 1444 1443 1442 1437 1434 1429 1432 1433 1435 1437 1438
1530 1526 1522 1518 1514 1510 1507 1503 1498 1494 1491 1489 1488 1486 1486 1489 1498 1495 1493 1489 1486 1482 1480 1477 1476 1473 1466 1460 1456 1447 1439 1442 1440 1440 1440 1441 1436 1437 1422 1426 1430 1431 1432 1434 1438
1529 1526 1521 1517 1512 1509 1505 1500 1495 1492 1490 1488 1487 1487 1486 1493 1498 1495 1491 1487 1483 1481 1479 1477 1475 1473 1467 1459 1455 1449 1444 1439 1438 1436 1435 1435 1431 1433 1401 1425 1425 1426 1427 1430 1434
1529 1525 1520 1515 1511 1508 1504 1498 1493 1491 1489 1488 1488 1486 1487 1501 1497 1494 1490 1487 1484 1480 1477 1475 1471 1469 1463 1456 1448 1445 1441 1434 1434 1433 1432 1433 1420 1410 1413 1420 1419 1420 1422 1425 1428
1528 1524 1519 1514 1509 1506 1502 1498 1494 1491 1489 1489 1489 1490 1494 1496 1495 1491 1487 1484 1482 1478 1475 1470 1468 1463 1458 1452 1446 1443 1441 1435 1427 1428 1427 1426 1400 1396 1410 1414 1411 1415 1416 1417 1418
1526 1522 1518 1513 1509 1505 1502 1497 1494 1492 1491 1491 1491 1489 1498 1496 1489 1489 1486 1482 1478 1475 1471 1468 1463 1460 1457 1457 1453 1443 1441 1439 1428 1428 1421 1419 1399 1399 1404 1406 1404 1406 1409 1412 1413
1525 1521 1517 1512 1508 1504 1501 1498 1496 1494 1492 1493 1495 1497 1499 1499 1495 1492 1488 1483 1478 1473 1470 1467 1464 1463 1462 1462 1469 1458 1456 1448 1446 1432 1424 1422 1408 1404 1403 1406 1399 1393 1397 1402 1405
1525 1521 1517 1512 1507 1503 1499 1496 1498 1498 1498 1504 1505 1504 1504 1501 1495 1492 1486 1481 1477 1474 1472 1468 1468 1468 1463 1461 1457 1455 1454 1453 1441 1427 1429 1418 1409 1401 1405 1400 1399 1397 1391 1392 1394
1524 1520 1516 1512 1508 1505 1500 1498 1502 1505 1505 1505 1505 1504 1503 1498 1494 1490 1486 1482 1477 1475 1471 1469 1467 1462 1459 1455 1452 1449 1448 1444 1433 1423 1422 1413 1401 1395 1398 1395 1393 1394 1393 1392 1391
1523 1519 1516 1513 1509 1505 1501 1501 1501 1502 1504 1505 1505 1504 1501 1497 1494 1489 1487 1482 1476 1474 1471 1472 1464 1460 1455 1451 1449 1442 1442 1437 1430 1419 1417 1409 1400 1393 1385 1388 1388 1387 1387 1390 1389
1523 1520 1516 1512 1510 1505 1503 1502 1501 1501 1507 1511 1507 1506 1502 1495 1494 1491 1488 1484 1477 1476 1470 1468 1459 1454 1452 1447 1441 1440 1428 1423 1421 1420 1421 1408 1397 1383 1376 1373 1376 1377 1379 1381 1385
1522 1520 1516 1510 1511 1507 1506 1503 1502 1504 1522 1512 1510 1508 1505 1504 1500 1490 1487 1481 1478 1475 1475 1462 1456 1451 1447 1442 1440 1435 1425 1419 1417 1418 1420 1405 1412 1385 1380 1368 1364 1364 1368 1370 1377
1522 1519 1516 1513 1510 1507 1504 1503 1505 1515 1543 1516 1513 1510 1507 1503 1499 1495 1489 1483 1477 1473 1467 1463 1453 1450 1445 1440 1436 1428 1422 1411 1406 1407 1410 1389 1399 1375 1370 1359 1352 1352 1356 1361 1365
1522 1519 1515 1513 1510 1507 1503 1503 1515 1526 1524 1520 1516 1512 1511 1505 1499 1496 1491 1491 1492 1487 1468 1457 1449 1446 1442 1441 1431 1429 1424 1424 1428 1413 1407 1376 1389 1366 1351 1350 1348 1349 1349 1353 1356
1521 1521 1518 1515 1511 1506 1504 1506 1526 1529 1529 1522 1518 1514 1512 1508 1504 1499 1495 1496 1492 1496 1482 1476 1455 1447 1442 1446 1440 1432 1427 1421 1414 1398 1379 1367 1370 1358 1349 1344 1343 1343 1347 1350 1352
1521 1520 1518 1515 1512 1507 1505 1529 1538 1536 1530 1525 1520 1520 1518 1511 1512 1507 1504 1508 1499 1494 1492 1480 1461 1445 1442 1435 1439 1429 1427 1421 1409 1398 1393 1359 1349 1344 1358 1355 1352 1351 1348 1343 1346
1521 1520 1519 1516 1513 1508 1510 1526 1532 1530 1529 1527 1532 1524 1533 1521 1518 1514 1511 1502 1498 1492 1489 1484 1476 1447 1439 1437 1439 1438 1431 1422 1423 1413 1391 1350 1356 1372 1369 1364 1353 1350 1346 1341 1342
1519 1520 1521 1518 1515 1512 1532 1536 1530 1528 1529 1529 1528 1531 1534 1531 1520 1521 1517 1499 1493 1488 1486 1482 1485 1453 1445 1441 1445 1433 1434 1426 1420 1411 1401 1379 1366 1383 1383 1371 1357 1344 1337 1335 1336
1520 1522 1523 1519 1520 1526 1535 1532 1531 1527 1527 1526 1526 1529 1532 1524 1521 1517 1512 1505 1492 1491 1487 1481 1480 1475 1452 1446 1446 1449 1445 1433 1422 1406 1398 1390 1376 1381 1381 1369 1351 1332 1331 1332 1332
1523 1525 1524 1521 1533 1536 1533 1532 1531 1529 1527 1526 1525 1524 1525 1523 1523 1516 1506 1494 1491 1490 1486 1478 1478 1467 1451 1449 1445 1448 1445 1439 1426 1418 1411 1413 1402 1387 1382 1359 1357 1341 1336 1335 1334
1525 1528 1526 1526 1532 1536 1539 1535 1532 1529 1528 1527 1525 1523 1523 1521 1517 1514 1506 1495 1491 1488 1483 1478 1476 1473 1469 1460 1456 1455 1453 1445 1441 1433 1428 1421 1419 1395 1383 1375 1362 1354 1351 1345 1342
1529 1533 1533 1537 1534 1535 1536 1537 1535 1532 1529 1526 1524 1523 1524 1520 1517 1512 1503 1498 1488 1486 1483 1482 1478 1464 1459 1453 1457 1457 1462 1452 1445 1444 1441 1433 1423 1413 1401 1390 1379 1371 1362 1350 1350
1533 1535 1534 1535 1536 1535 1535 1537 1534 1532 1531 1526 1524 1520 1520 1519 1519 1511 1506 1500 1497 1488 1486 1481 1477 1466 1458 1447 1450 1454 1461 1456 1449 1445 1438 1431 1423 1418 1408 1397 1388 1382 1372 1362 1361
1534 1535 1536 1537 1536 1538 1536 1534 1532 1531 1527 1524 1522 1521 1515 1509 1506 1501 1501 1496 1497 1497 1492 1488 1479 1472 1456 1444 1445 1455 1466 1460 1453 1452 1449 1441 1436 1420 1406 1401 1394 1388 1374 1372 1369